sat.trackr.live / text

‹ back to catalog

STARLINK-36262

NORAD 67201 · 2025-304K

PAYLOAD ACTIVE UNKNOWN

§ Identity

Operator
Country
US
Launch date
2025-12-17
Launch site
AFWTR
Launch vehicle
Mass (kg)
RCS (m²)

Purposes: comms

External: N2YO · Heavens-Above · Gunter

§ Orbital elements

Epoch: 2026-05-24T22:45:32.679360Z

Period
96.11 min
Inclination
70.0021°
Eccentricity
0.0002221
Mean motion
14.98332580 rev/d
Perigee alt
570.5 km
Apogee alt
573.6 km
Semi-major
6,950.2 km
B*
1.8034e-4
RAAN
342.3369°
Arg perigee
267.3814°
Mean anomaly
92.7091°
Rev number
2,530

§ Raw data

STARLINK-362621 67201U 25304K   26144.94829490  .00002060  00000+0  18034-3 0  99982 67201  70.0021 342.3369 0002221 267.3814  92.7091 14.98332580 25307

JSON: /api/v1/satellites/67201 · /tle

For live sub-satellite position, see the globe view (requires WebGL).

§ Visibility from observer

Set your observer location to see the next 7 days of passes ≥ 10°. The values pass through the URL so the page stays shareable.

No JS? Fill the form by hand. The geolocation button needs JavaScript.